sat.trackr.live / text

‹ back to catalog

STARLINK-6327

NORAD 56522 · 2023-065V

PAYLOAD ACTIVE UNKNOWN

§ Identity

Operator
Country
US
Launch date
2023-05-14
Launch site
AFETR
Launch vehicle
Mass (kg)
RCS (m²)

Purposes: comms

External: N2YO · Heavens-Above · Gunter

§ Orbital elements

Epoch: 2026-05-25T00:45:12.693024Z

Period
94.27 min
Inclination
42.9993°
Eccentricity
0.0001334
Mean motion
15.27576960 rev/d
Perigee alt
482.1 km
Apogee alt
484.0 km
Semi-major
6,861.2 km
B*
3.7190e-5
RAAN
141.4694°
Arg perigee
280.1979°
Mean anomaly
79.8722°
Rev number
16,827

§ Raw data

STARLINK-63271 56522U 23065V   26145.03139691  .00000761  00000+0  37190-4 0  99932 56522  42.9993 141.4694 0001334 280.1979  79.8722 15.27576960168271

JSON: /api/v1/satellites/56522 · /tle

For live sub-satellite position, see the globe view (requires WebGL).

§ Visibility from observer

Set your observer location to see the next 7 days of passes ≥ 10°. The values pass through the URL so the page stays shareable.

No JS? Fill the form by hand. The geolocation button needs JavaScript.